Regional Weather Roundup
Issued by NWS Kansas City/Pleasant Hill, MO

Home | Current Version | Previous Version | Graphics & Text | Print | Product List | Glossary Off
Versions: 1 2 3 4 5 6 7 8 9 10 11 12 13 14 15 16 17 18 19 20 21 22 23 24 25 26 27 28 29 30 31 32 33 34 35 36 37 38 39 40 41 42 43 44 45 46 47 48 49 50

000
ASUS43 KEAX 221410
RWREAX

WEATHER ROUNDUP FOR EASTERN KANSAS AND NORTHWEST MISSOURI
NATIONAL WEATHER SERVICE KANSAS CITY/PLEASANT HILL MO
900 AM CDT SUN OCT 22 2017

KSZ040-057-103>105-MOZ028-029-037-043-221500-
...KANSAS CITY METROPOLITAN AREA...

CITY           SKY/WX    TMP DP  RH WIND       PRES   REMARKS
K.C. INTL      PTSUNNY   48  47  96 NW6       30.09R
K.C. DOWNTOWN  MOSUNNY   51  48  89 NW6       30.09R
LEES SUMMIT    CLOUDY    49  48  97 NW6       30.09R
OLATHE - IXD   MOSUNNY   48  47  96 NW12      30.12R
OLATHE - OJC   MOSUNNY   48  46  93 NW12      30.10R
LAWRENCE       SUNNY     49  47  93 NW8       30.12R

$$

MOZ001>008-011>017-020>025-030>033-038>040-044>046-053-054-221500-
...NORTHERN AND CENTRAL MISSOURI...

CITY           SKY/WX    TMP DP  RH WIND       PRES   REMARKS
ST. JOSEPH     SUNNY     50  47  89 CALM      30.11R
MOSBY          CLOUDY    50  46  87 NW5       30.09R
WARRENSBURG    CLOUDY    48  46  93 NW8       30.09R
WHITEMAN AFB   CLOUDY    50  48  94 NW8       30.05R
CLINTON        CLOUDY    50  48  93 NW7       30.09R
SEDALIA        LGT RAIN  51  51 100 N13       30.06R
WARSAW         NOT AVBL
CHILLICOTHE      N/A     51  49  92 CALM      30.08R
KIRKSVILLE     LGT RAIN  50  50 100 NW7       30.06R

$$

MOZ041-047>049-056>058-063>065-088>090-097-221500-
...EASTERN AND SOUTHERN MISSOURI...

CITY           SKY/WX    TMP DP  RH WIND       PRES   REMARKS
ST. LOUIS INTL CLOUDY    63  62  97 NW7       29.93R
SPIRIT OF STL  CLOUDY    62  61  96 W5        29.94R
COLUMBIA       LGT RAIN  53  53 100 NW15      30.01R
JEFFERSON CITY LGT RAIN  55  52  89 NW9       30.00R
ROLLA          FOG       56  56 100 NW8       29.98R VSB 1/4
OSAGE BEACH    LGT RAIN  53  52  96 NW7       30.02R
SPRINGFIELD    LGT RAIN  52  52 100 NW13G21   30.04R
BRANSON        RAIN      55  55 100 NW13      30.05R VSB 1
JOPLIN         CLOUDY    51  51 100 N10       30.10R
WEST PLAINS    CLOUDY    59  58  96 E6        29.97S

$$

IAZ060-094-KSZ022-034>040-054-083-096-NEZ052-066-093-221500-
...KANSAS...SOUTHEAST NEBRASKA AND IOWA...

CITY           SKY/WX    TMP DP  RH WIND       PRES   REMARKS
TOPEKA         SUNNY     49  46  90 W6        30.13R
MANHATTAN      SUNNY     46  43  89 SW3       30.15R
EMPORIA        SUNNY     47  42  83 W6        30.15R
CHANUTE        SUNNY     51  46  83 NW8       30.13R
WICHITA        MOSUNNY   49  42  77 NW7       30.18R
OMAHA          PTSUNNY   46  38  73 CALM      30.11R
LINCOLN        SUNNY     43  36  76 CALM      30.14R
FALLS CITY     SUNNY     47  41  80 NW8       30.11R
LAMONI         CLOUDY    50  45  83 NW9       30.05R
DES MOINES     CLOUDY    51  44  77 NW8       30.05R

$$




USA.gov is the U.S. government's official web portal to all federal, state and local government web resources and services.